Regional Weather Roundup
Issued by NWS

Home | Current Version | Previous Version | Text Only | Print | Product List | Glossary On
Versions: 1 2 3 4 5 6 7 8 9 10 11 12 13 14 15 16 17 18 19 20 21 22 23 24 25 26 27 28 29 30 31 32 33 34 35 36 37 38 39 40 41 42 43 44 45 46 47 48 49 50
000
ASUS43 KMPX 191101
RWRMN
WEATHER ROUNDUP FOR MINNESOTA
NATIONAL WEATHER SERVICE TWIN CITIES/CHANHASSEN MN
500 AM CST THU JAN 19 2017


NOTE: "FAIR" INDICATES FEW OR NO CLOUDS BELOW 12,000 FEET WITH NO
SIGNIFICANT WEATHER AND/OR OBSTRUCTIONS TO VISIBILITY. N/A MEANS
CURRENT SKY AND/OR WEATHER CONDITIONS ARE NOT AVAILABLE.

MNZ060>063-068>070-191200-
   Twin Cities Metro

CITY           SKY/WX    TMP DP  RH WIND       PRES   REMARKS
TWIN CITIES    CLEAR     34  30  85 S6        29.81F WCI  29
ST PAUL        CLEAR     31  30  96 SE7       29.83F FOG     WCI  24
CRYSTAL        CLEAR     32  29  88 S7        29.79S WCI  26
BLAINE         CLEAR     34  34 100 S8        29.80S WCI  27
LAKEVILLE      CLEAR     34  34 100 S9        29.81F WCI  26
EDEN PRAIRIE   CLEAR     37  32  82 S9        29.79S
SOUTH ST PAUL  CLEAR     30  30  98 CALM      29.82F FOG
LAKE ELMO      FAIR      32  32 100 S6        29.83S WCI  26
$$
MNZ001>005-007-008-013>017-022>024-027-028-191200-
   Northwest Minnesota

CITY           SKY/WX    TMP DP  RH WIND       PRES   REMARKS
BEMIDJI        CLOUDY    26  26  98 S8        29.66S WCI  18
HALLOCK        CLOUDY    25  21  86 SE15      29.58S WCI  12
ROSEAU         CLOUDY    30  25  80 S13       29.60F WCI  20
WARROAD        CLOUDY    32  25  74 S7        29.61S WCI  26
THIEF RVR FALL CLOUDY    25  21  85 S12       29.64S WCI  14
CROOKSTON      CLOUDY    28  27  93 S14       29.64F WCI  17
FOSSTON        CLOUDY    21  19  93 S5        29.65R WCI  15
DETROIT LAKES  FOG       30  30 100 S9        29.65F VSB 1/4 WCI  22
MOORHEAD       FOG       27  25  93 S12       29.66S VSB 1/2 WCI  16
PARK RAPIDS    FOG       29  27  92 S7        29.67F VSB 1/4 WCI  22
MAHNOMEN       FAIR      28  26  94 S5        29.64R WCI  22
$$
MNZ006-009>011-018-025>026-191200-
   North Central Minnesota

CITY           SKY/WX    TMP DP  RH WIND       PRES   REMARKS
BAUDETTE       CLOUDY    27  21  78 S6        29.63S WCI  20
FLAG ISLAND    CLOUDY    23  19  86 SE13      29.60S WCI  11
INTL FALLS     CLEAR     23  20  88 SE3       29.67S
WASKISH        CLOUDY    28  25  86 CALM      29.65S
BIG FORK       CLOUDY    28  25  86 S3        29.68F
LONGVILLE      FOG       30  30 100 S8        29.69F VSB 1/4 WCI  23
GRAND RAPIDS   SNOW      31  30  96 S14       29.72S VSB 1/4 WCI  21
CRANE LAKE     CLOUDY    12  12 100 CALM      29.73R
ORR            CLOUDY    28  25  86 CALM      29.68S
COOK           CLOUDY    27  27 100 CALM      29.71S FOG
WALKER         FOG       29  29  99 S3        29.68S VSB 1/2
$$
MNZ012-019>021-037-191200-
   Northeast Minnesota

CITY           SKY/WX    TMP DP  RH WIND       PRES   REMARKS
DULUTH         FOG       33  33 100 SW8       29.75S VSB 1/4 WCI  26
ELY            CLOUDY    23  21  93 SE5       29.72S FOG     WCI  17
HIBBING        FOG       29  29 100 S5        29.72S VSB 1/4 WCI  24
EVELETH        FOG       24  23  96 CALM      29.74S VSB 1/4
DULUTH HARBOR  CLOUDY    36  34  93 CALM      29.79S
TWO HARBORS    HAZE      34  28  80 CALM      29.76S VSB 1/4
SILVER BAY     CLOUDY    25  25 100 CALM      29.77S VSB 1/4
G MARAIS ARPRT FOG       27  25  93 CALM      29.76F VSB<1/4
$$
MNZ029>031-032-039>041-046>048-054>057-064-191200-
   West Central Minnesota

CITY           SKY/WX    TMP DP  RH WIND       PRES   REMARKS
FERGUS FALLS   FOG       30  30 100 S12       29.71S VSB 1/2 WCI  21
WHEATON        CLOUDY    28  27  93 E10       29.68F FOG     WCI  19
MORRIS         SNOW      28  28 100 SE8       29.68S VSB<1/4 WCI  20
ALEXANDRIA     FOG       33  33 100 S10       29.70F VSB 1/4 WCI  25
ELBOW LAKE     SNOW      29  29 100 E9        29.68F VSB 1/4 WCI  21
WADENA         MIX PCPN  28  28 100 S6        29.68S VSB 1/4 WCI  22
GLENWOOD       FOG       25  25 100 SE9       29.71S VSB<1/4 WCI  15
APPLETON       FOG       25  21  86 SE6       29.70S VSB 3/4 WCI  18
ORTONVILLE     FOG       23  21  93 CALM      29.67F VSB 1
MADISON        CLEAR     30  30 100 SE8       29.69S WCI  23
WILLMAR        FAIR      27  27 100 SE8       29.75S FOG     WCI  18
$$
MNZ033>034-036-042>043-049>051-058-059-191200-
   Central Minnesota

CITY           SKY/WX    TMP DP  RH WIND       PRES   REMARKS
ST CLOUD       FOG       26  26 100 SE6       29.76S VSB 1/4 WCI  19
SAUK CENTRE    FOG       28  28 100 SE7       29.73S VSB 1/4 WCI  21
PAYNESVILLE    CLOUDY    29  29 100 S5        29.75R FOG     WCI  24
AITKIN         FOG       36  30  80 S5        29.72S VSB 1/2
PINE RIVER     SNOW      30  30 100 S7        29.75S VSB 1/4 WCI  23
BRAINERD       FOG       32  32 100 S8        29.73S VSB 1/4 WCI  25
STAPLES        SNOW      30  30 100 S7        29.70F VSB 1/4 WCI  23
LONG PRAIRIE   SNOW      32  32 100 SE5       29.72S VSB 1/2 WCI  27
LITTLE FALLS   SNOW      32  32 100 S7        29.74S VSB 1/4 WCI  26
LITCHFIELD     CLOUDY    32  32 100 S5        29.76S FOG     WCI  27
BUFFALO        CLEAR     33  32  96 S7        29.79S WCI  27
MAPLE LAKE     CLOUDY    32  32 100 S6        29.78S FOG     WCI  26
HUTCHINSON     CLOUDY    30  30  99 SE6       29.79R FOG     WCI  24
$$
MNZ037-044-045-052-053-191200-
   East Central Minnesota

CITY           SKY/WX    TMP DP  RH WIND       PRES   REMARKS
PRINCETON      FOG       25  23  93 CALM      29.77S VSB 1/4
MORA           FOG       30  28  93 CALM      29.79F VSB 1/4
CAMBRIDGE      CLOUDY    34  28  80 SE6       29.77S HAZE    WCI  29
RUSH CITY      CLOUDY    28  28 100 S7        29.80R FOG     WCI  21
MOOSE LAKE     FOG       32  32 100 S7        29.75S VSB 1/2 WCI  26
HINCKLEY       CLOUDY    32  32 100 CALM      29.79S FOG
CLOQUET        FOG       34  32  93 S8        29.76R VSB 1/4 WCI  27
MCGREGOR       CLOUDY    34  32  93 S6        29.75S VSB 1/2 WCI  29
$$
MNZ071>073-080-081-089-090-097-098-191200-
   Southwest Minnesota

CITY           SKY/WX    TMP DP  RH WIND       PRES   REMARKS
MONTEVIDEO     CLOUDY    30  30 100 S5        29.73S WCI  25
GRANITE FALLS  CLOUDY    34  32  94 SE13      29.74S WCI  25
CANBY          CLEAR     41  36  82 S7        29.69S
MARSHALL       CLEAR     38  33  82 S14       29.71S
REDWOOD FALLS  CLEAR     35  30  82 S12       29.75S WCI  27
OLIVIA         CLEAR     32  30  93 SE6       29.74S WCI  26
PIPESTONE      CLEAR     36  34  93 S10       29.72S
WINDOM           N/A     36  34  93 S9        29.77R
WORTHINGTON    CLEAR     36  32  85 S15       29.76S
JACKSON        CLEAR     32  32 100 S10       29.78F WCI  24
TRACY          CLEAR     39  35  83 S17       29.72S
SLAYTON        CLEAR     35  32  90 S14G20    29.75S WCI  26
$$
MNZ065>067-074>077-082>085-091>093-191200-
   South Central Minnesota

CITY           SKY/WX    TMP DP  RH WIND       PRES   REMARKS
MANKATO        CLEAR     34  32  92 S10       29.81F WCI  26
NEW ULM        CLEAR     34  30  86 S12       29.78S WCI  25
ST JAMES       CLEAR     34  32  93 S8        29.81S WCI  27
FAIRMONT       CLEAR     34  32  92 S8        29.81S WCI  27
GLENCOE        CLEAR     35  34  96 S9        29.78S WCI  28
FARIBAULT      CLEAR     34  30  86 S10       29.83S WCI  26
OWATONNA       CLEAR     34  30  86 S12       29.83S WCI  25
WASECA         CLEAR     34  32  93 S12       29.84S WCI  25
ALBERT LEA     CLEAR     32  30  93 S8        29.84F FOG     WCI  25
$$
MNZ078>079-086>088-094>096-191200-
   Southeast Minnesota

CITY           SKY/WX    TMP DP  RH WIND       PRES   REMARKS
ROCHESTER      MOCLDY    29  29 100 S16       29.86S FOG     WCI  17
RED WING       CLEAR     30  28  93 CALM      29.85S FOG
STANTON        CLEAR     35  31  87 S9        29.81F WCI  27
DODGE CENTER   CLEAR     30  30 100 S12       29.84S FOG     WCI  21
WINONA         CLEAR     32  30  93 E5        29.91R FOG     WCI  27
AUSTIN         FOG       30  30 100 S9        29.86S VSB 1/2 WCI  22
PRESTON        FOG       30  29  96 S13       29.88F VSB 1/2 WCI  20
$$
ABBREVIATIONS USED IN REMARKS
   TC - TEMPERATURES IN CELSIUS
  WCI - WIND CHILL INDEX
   HX - HEAT INDEX
  VSB - VISIBILITY
$$




USA.gov is the U.S. government's official web portal to all federal, state and local government web resources and services.